Flag for United Kingdom Weather past 2 weeks in Cheltenham, England, United Kingdom

Now
47 °F

Cool.


Feels Like: 42 °F
Forecast: 45 / 59 °F
Wind: 9 mph from Northwest

Location: Little Rissington

Current Time: Sep 2, 2015 at 3:59:28 AM

Latest Report: Sep 2, 2015 at 3:00 AM


Visibility: 13 mi

Pressure: 30.09 "Hg

Humidity: 100%

Dew point: 47 °F

Location of CheltenhamLocation

Historic Weather in Cheltenham — Graph

°F

Cheltenham temperature yesterday

Maximum temperature yesterday: 62 °F (at 4:00 PM)
Minimum temperature yesterday: 48 °F (at 11:00 PM)
Average temperature yesterday: 55 °F

Past Weeks' High & Low Weather Summary

 TemperatureHumidityPressure
High80 °F (Aug 22, 5:00 PM)100% (Aug 19, 6:00 AM)30.11 "Hg (Aug 19, 6:00 AM)
Low46 °F (Sep 2, 2:00 AM)47% (Aug 22, 4:00 PM)29.47 "Hg (Aug 24, 10:00 AM)
Average58 °F90%29.88 "Hg
* Reported Aug 18 2:00 AM — Sep 2 2:00 AM, Cheltenham, Weather by CustomWeather, © 2015

Note: Actual official high and low records may vary slightly from our data, if they occured in-between our weather recording intervals... More about our weather records

Advertising

Cheltenham weather history for previous 24 hours

 ConditionsComfort  
Time TempWeatherWind HumidityBarometerVisibility
2:00 AM
Wed, Sep 2
46 °FCool.9 mph100%30.10 "Hg13 mi
1:00 AM48 °FCool.10 mph99%30.11 "Hg17 mi
12:00 AM47 °FCool.12 mph100%30.11 "Hg17 mi
11:00 PM
Tue, Sep 1
48 °FCool.8 mph95%30.11 "Hg16 mi
9:00 PM51 °FCool.8 mph94%30.11 "Hg19 mi
8:00 PM52 °FCool.5 mph90%30.10 "Hg18 mi
7:00 PM56 °FCool.9 mph83%30.09 "Hg14 mi
6:00 PM59 °FCool.6 mph68%30.08 "Hg18 mi
5:00 PM59 °FCool.8 mph76%30.08 "Hg14 mi
4:00 PM62 °FCool.7 mph62%30.07 "Hg17 mi
3:00 PM60 °FCool.7 mph81%30.08 "Hg14 mi
2:00 PM57 °FCool.6 mph85%30.09 "Hg14 mi
1:00 PM60 °FCool.5 mph72%30.09 "Hg13 mi
12:00 PM60 °FCool.7 mph85%30.09 "Hg13 mi
11:00 AM58 °FCool.12 mph88%30.08 "Hg19 mi
10:00 AM54 °FCool.9 mph100%30.07 "Hg7 mi
9:00 AM52 °FCool.13 mph100%30.06 "Hg4 mi
8:00 AM52 °FCool.12 mph100%30.04 "Hg3 mi
7:00 AM51 °FCool.12 mph100%30.03 "Hg7 mi
6:00 AM52 °FCool.10 mph100%30.03 "Hg8 mi
5:00 AM52 °FCool.8 mph100%30.03 "Hg4 mi
3:00 AM52 °FCool.8 mph100%30.03 "Hg3 mi
Weather by CustomWeather, © 2015

See weather overviewHow to use our weather pages